TimeCST,TemperatureF,Dew PointF,Humidity,Sea Level PressureIn,VisibilityMPH,Wind Direction,Wind SpeedMPH,Gust SpeedMPH,PrecipitationIn,Events,Conditions,WindDirDegrees,DateUTC
12:15 AM,-2.2,-4.0,92,30.33,5.0,Calm,Calm,-,N/A,,Overcast,0,2012-12-26 06:15:00
12:35 AM,3.2,-0.4,85,30.32,5.0,Calm,Calm,-,N/A,,Overcast,0,2012-12-26 06:35:00
12:55 AM,3.2,1.4,92,30.32,7.0,WSW,3.5,-,N/A,,Overcast,240,2012-12-26 06:55:00
1:15 AM,3.2,-0.4,85,30.32,9.0,Calm,Calm,-,N/A,,Overcast,0,2012-12-26 07:15:00
1:35 AM,3.2,-0.4,85,30.32,10.0,Calm,Calm,-,N/A,,Overcast,0,2012-12-26 07:35:00
1:55 AM,1.4,-7.6,66,30.32,10.0,Calm,Calm,-,N/A,,Overcast,0,2012-12-26 07:55:00
2:15 AM,-2.2,-7.6,78,30.31,10.0,Calm,Calm,-,N/A,,Overcast,0,2012-12-26 08:15:00
2:35 AM,-0.4,-5.8,78,30.31,6.0,Calm,Calm,-,N/A,,Overcast,0,2012-12-26 08:35:00
3:15 AM,-2.2,-9.4,71,30.31,10.0,Calm,Calm,-,N/A,,Mostly Cloudy,0,2012-12-26 09:15:00
3:35 AM,-5.8,-11.2,77,30.31,3.0,Calm,Calm,-,N/A,,Overcast,0,2012-12-26 09:35:00
3:55 AM,-4.0,-7.6,85,30.30,0.8,Calm,Calm,-,N/A,,Overcast,0,2012-12-26 09:55:00
4:15 AM,-2.2,-7.6,78,30.30,0.8,Calm,Calm,-,N/A,,Overcast,0,2012-12-26 10:15:00
4:35 AM,-2.2,-7.6,78,30.30,0.8,Calm,Calm,-,N/A,,Overcast,0,2012-12-26 10:35:00
5:15 AM,-0.4,-4.0,85,30.29,1.0,Calm,Calm,-,N/A,,Overcast,0,2012-12-26 11:15:00
5:35 AM,-2.2,-13.0,60,30.29,2.5,Calm,Calm,-,N/A,,Overcast,0,2012-12-26 11:35:00
5:55 AM,-2.2,-5.8,85,30.29,5.0,Calm,Calm,-,N/A,,Overcast,0,2012-12-26 11:55:00
6:15 AM,-2.2,-9.4,71,30.30,2.5,Calm,Calm,-,N/A,,Overcast,0,2012-12-26 12:15:00
6:35 AM,-2.2,-5.8,85,30.30,9.0,Calm,Calm,-,N/A,,Overcast,0,2012-12-26 12:35:00
6:55 AM,-4.0,-11.2,71,30.29,10.0,Calm,Calm,-,N/A,,Scattered Clouds,0,2012-12-26 12:55:00
7:15 AM,-2.2,-4.0,92,30.29,10.0,Calm,Calm,-,N/A,,Clear,0,2012-12-26 13:15:00
7:35 AM,-5.8,-14.8,65,30.29,10.0,Calm,Calm,-,N/A,,Clear,0,2012-12-26 13:35:00
7:55 AM,-5.8,-9.4,84,30.29,10.0,Calm,Calm,-,N/A,,Clear,0,2012-12-26 13:55:00
8:15 AM,-5.8,-9.4,84,30.29,9.0,Calm,Calm,-,N/A,,Clear,0,2012-12-26 14:15:00
8:35 AM,-2.2,-5.8,85,30.29,10.0,Calm,Calm,-,N/A,,Clear,0,2012-12-26 14:35:00
8:55 AM,-2.2,-7.6,78,30.29,10.0,Calm,Calm,-,N/A,,Clear,0,2012-12-26 14:55:00
9:15 AM,-0.4,-4.0,85,30.28,10.0,Calm,Calm,-,N/A,,Scattered Clouds,0,2012-12-26 15:15:00
9:35 AM,1.4,-5.8,72,30.27,10.0,Calm,Calm,-,N/A,,Mostly Cloudy,0,2012-12-26 15:35:00
9:55 AM,3.2,1.4,92,30.28,10.0,Calm,Calm,-,N/A,,Partly Cloudy,0,2012-12-26 15:55:00
10:15 AM,3.2,-2.2,78,30.28,10.0,Calm,Calm,-,N/A,,Clear,0,2012-12-26 16:15:00
10:35 AM,5.0,1.4,85,30.27,10.0,Calm,Calm,-,N/A,,Partly Cloudy,0,2012-12-26 16:35:00
10:55 AM,5.0,1.4,85,30.27,10.0,Calm,Calm,-,N/A,,Clear,0,2012-12-26 16:55:00
11:15 AM,6.8,3.2,85,30.26,10.0,Calm,Calm,-,N/A,,Clear,0,2012-12-26 17:15:00
11:35 AM,8.6,5.0,85,30.25,10.0,Calm,Calm,-,N/A,,Clear,0,2012-12-26 17:35:00
11:55 AM,10.4,5.0,79,30.24,10.0,Calm,Calm,-,N/A,,Clear,0,2012-12-26 17:55:00
12:15 PM,10.4,6.8,85,30.23,10.0,Calm,Calm,-,N/A,,Clear,0,2012-12-26 18:15:00
12:35 PM,10.4,6.8,85,30.23,10.0,Calm,Calm,-,N/A,,Clear,0,2012-12-26 18:35:00
12:55 PM,12.2,8.6,85,30.23,10.0,Calm,Calm,-,N/A,,Clear,0,2012-12-26 18:55:00
1:15 PM,12.2,6.8,79,30.23,10.0,Calm,Calm,-,N/A,,Clear,0,2012-12-26 19:15:00
1:35 PM,14.0,6.8,73,30.23,10.0,Calm,Calm,-,N/A,,Partly Cloudy,0,2012-12-26 19:35:00
1:55 PM,15.8,8.6,73,30.23,10.0,Calm,Calm,-,N/A,,Scattered Clouds,0,2012-12-26 19:55:00
2:15 PM,15.8,8.6,73,30.23,10.0,Calm,Calm,-,N/A,,Partly Cloudy,0,2012-12-26 20:15:00
2:35 PM,15.8,8.6,73,30.23,10.0,Calm,Calm,-,N/A,,Clear,0,2012-12-26 20:35:00
2:55 PM,15.8,8.6,73,30.23,10.0,Calm,Calm,-,N/A,,Clear,0,2012-12-26 20:55:00
3:15 PM,15.8,8.6,73,30.23,10.0,Calm,Calm,-,N/A,,Clear,0,2012-12-26 21:15:00
3:35 PM,15.8,8.6,73,30.23,10.0,Calm,Calm,-,N/A,,Clear,0,2012-12-26 21:35:00
3:55 PM,15.8,6.8,68,30.23,10.0,Calm,Calm,-,N/A,,Clear,0,2012-12-26 21:55:00
4:15 PM,15.8,8.6,73,30.23,10.0,Calm,Calm,-,N/A,,Clear,0,2012-12-26 22:15:00
4:35 PM,14.0,8.6,79,30.23,10.0,Calm,Calm,-,N/A,,Partly Cloudy,0,2012-12-26 22:35:00
4:55 PM,12.2,8.6,85,30.22,10.0,Calm,Calm,-,N/A,,Partly Cloudy,0,2012-12-26 22:55:00
5:15 PM,14.0,8.6,79,30.22,10.0,Calm,Calm,-,N/A,,Partly Cloudy,0,2012-12-26 23:15:00
5:35 PM,12.2,8.6,85,30.22,10.0,Calm,Calm,-,N/A,,Clear,0,2012-12-26 23:35:00
5:55 PM,8.6,3.2,79,30.22,10.0,Calm,Calm,-,N/A,,Clear,0,2012-12-26 23:55:00
6:15 PM,8.6,8.6,100,30.22,9.0,Calm,Calm,-,N/A,,Clear,0,2012-12-27 00:15:00
6:35 PM,6.8,1.4,79,30.22,8.0,Calm,Calm,-,N/A,,Partly Cloudy,0,2012-12-27 00:35:00
7:15 PM,3.2,-0.4,85,30.22,10.0,Calm,Calm,-,N/A,,Mostly Cloudy,0,2012-12-27 01:15:00
7:35 PM,6.8,1.4,79,30.21,10.0,Calm,Calm,-,N/A,,Overcast,0,2012-12-27 01:35:00
7:55 PM,3.2,-0.4,85,30.21,10.0,Calm,Calm,-,N/A,,Overcast,0,2012-12-27 01:55:00
8:15 PM,5.0,1.4,85,30.21,10.0,Calm,Calm,-,N/A,,Overcast,0,2012-12-27 02:15:00
8:35 PM,5.0,-0.4,78,30.21,10.0,Calm,Calm,-,N/A,,Overcast,0,2012-12-27 02:35:00
8:55 PM,5.0,-0.4,78,30.21,10.0,Calm,Calm,-,N/A,,Overcast,0,2012-12-27 02:55:00
9:15 PM,6.8,1.4,79,30.21,9.0,Calm,Calm,-,N/A,,Overcast,0,2012-12-27 03:15:00
9:35 PM,6.8,1.4,79,30.21,10.0,Calm,Calm,-,N/A,,Overcast,0,2012-12-27 03:35:00
9:55 PM,8.6,3.2,79,30.21,10.0,Calm,Calm,-,N/A,,Overcast,0,2012-12-27 03:55:00
10:15 PM,6.8,1.4,79,30.21,10.0,Calm,Calm,-,N/A,,Overcast,0,2012-12-27 04:15:00
10:35 PM,8.6,5.0,85,30.21,10.0,Calm,Calm,-,N/A,,Overcast,0,2012-12-27 04:35:00
10:55 PM,8.6,1.4,73,30.21,8.0,Calm,Calm,-,N/A,,Overcast,0,2012-12-27 04:55:00
11:15 PM,8.6,3.2,79,30.21,10.0,Calm,Calm,-,N/A,,Overcast,0,2012-12-27 05:15:00
11:35 PM,10.4,6.8,85,30.20,10.0,Calm,Calm,-,N/A,,Overcast,0,2012-12-27 05:35:00
11:55 PM,10.4,6.8,85,30.20,10.0,Calm,Calm,-,N/A,,Overcast,0,2012-12-27 05:55:00